Location: Follega
(52.8850°N, 5.7362°E)
Time: 00:05:57
(UTC+00:00)

ERS-1 Rocket - Pass Details

Date: 04 October 2020
Orbit: 753 x 757 km, 98.5° (Epoch: 24 October)

Event Time Altitude Azimuth Distance (km) Brightness Sun altitude
Exits shadow 20:18:05 31° 23° (NNE) 1,309 4.2 -28.5°
Drops below altitude 10° 20:21:10 10° 356° (N) 2,300 5.9 -28.9°
Sets 20:23:35 0° 349° (N) 3,230 6.9 -29.2°
